Regional Weather Roundup
Issued by NWS

Home | Current Version | Previous Version | Text Only | Print | Product List | Glossary On
Versions: 1 2 3 4 5 6 7 8 9 10 11 12 13 14 15 16 17 18 19 20 21 22 23 24 25 26 27 28 29 30 31 32 33 34 35 36 37 38 39 40 41 42 43 44 45 46 47 48 49 50
000
ASUS45 KABQ 061010
RWRNM
WEATHER ROUNDUP FOR NEW MEXICO
NATIONAL WEATHER SERVICE ALBUQUERQUE NM
300 AM MST FRI MAR 06 2015

NOTE: "FAIR" MEANS FEW OR NO CLOUDS BELOW 12,000 FEET AGL WITH NO
       SIGNIFICANT WEATHER OR OBSTRUCTIONS TO VISION.

      THIS PRODUCT IS RELEASED AS TWO VERSIONS.  ONE VERSION NEAR
      THE TOP OF THE HOUR CONTAINING PRELIMINARY DATA FROM ALBUQUERQUE
      AND OTHER STATIONS.  A FINAL VERSION WITH ADDITIONAL DATA IS
      ISSUED ABOUT 10 MINUTES AFTER THE HOUR.

NMZ501-503-504-510>518-061100-
NORTHWEST PLATEAU/NORTHCENTRAL MOUNTAINS

CITY           SKY/WX    TMP DP  RH WIND       PRES   REMARKS
FARMINGTON     CLEAR     23  18  81 E5        30.37F WCI  17
LOS ALAMOS     PTCLDY    30  11  45 CALM      30.35F
SANTA FE       PTCLDY    28  14  55 NW6       30.33S WCI  22
TAOS           PTCLDY    18  10  73 CALM      30.37F
ANGEL FIRE     FAIR      -3  -6  85 CALM      30.37F

$$
NMZ402-403-502-505>509-061100-
WESTCENTRAL MOUNTAINS/SOUTHWEST MOUNTAINS

CITY           SKY/WX    TMP DP  RH WIND       PRES   REMARKS
GALLUP         CLEAR     22  16  78 CALM      30.37F
GRANTS         CLEAR     18  13  80 NW8       30.39F WCI   7
SILVER CITY    CLEAR     23  16  74 N5        30.34F WCI  17

$$
NMZ407-409-411-412-061100-
SOUTHERN DESERTS

CITY           SKY/WX    TMP DP  RH WIND       PRES   REMARKS
LORDSBURG      FAIR      32  21  64 S8        30.32S WCI  25
DEMING         CLEAR     28  21  75 NE7       30.34F WCI  21
LAS CRUCES     CLEAR     25  21  83 CALM      30.36S
HOLLOMAN AFB   CLEAR     28  22  78 NW3       30.35F
ALAMOGORDO     CLEAR     27  21  80 S6        30.37S WCI  20
T OR C         CLEAR     31  15  52 NW8       30.34F WCI  23

$$
NMZ519>523-061100-
CENTRAL VALLEYS/CENTRAL HIGHLANDS

CITY           SKY/WX    TMP DP  RH WIND       PRES   REMARKS
ALBUQUERQUE    CLEAR     36  12  37 N7        30.36F WCI  30
DOUBLE EAGLE   CLEAR     29  10  45 NW7       30.37S WCI  22
MORIARTY ARPT  FAIR      15  10  80 NE5       30.35F WCI   8
CLINES CORNERS CLEAR     27  13  55 W16       30.29F WCI  15
BELEN          FAIR      25  14  64 NW5       30.37F WCI  19
SOCORRO          N/A     24  17  74 CALM      30.36F

$$
NMZ524>526-539-540-061100-
SOUTHCENTRAL MOUNTAINS

CITY           SKY/WX    TMP DP  RH WIND       PRES   REMARKS
RUIDOSO        CLEAR     32   5  32 W8        30.35F WCI  25

$$
NMZ527>531-061100-
NORTHEAST HIGHLANDS/NORTHEAST PLAINS

CITY           SKY/WX    TMP DP  RH WIND       PRES   REMARKS
LAS VEGAS      PTCLDY    22  13  68 NE3       30.29F
RATON          CLEAR     20  17  88 NE7       30.29F WCI  11
CLAYTON        CLEAR     34  19  54 NW12      30.26F WCI  25

$$
NMZ532>537-061100-
EASTCENTRAL PLAINS

CITY           SKY/WX    TMP DP  RH WIND       PRES   REMARKS
TUCUMCARI      CLEAR     25  22  88 SW6       30.31F WCI  18
CANNON AFB     CLEAR     24  21  88 W8        30.33F WCI  16
CLOVIS AIRPORT CLEAR     21  18  86 SW7       30.34S WCI  13

$$
NMZ028-029-538-061100-
SOUTHEAST PLAINS

CITY           SKY/WX    TMP DP  RH WIND       PRES   REMARKS
ROSWELL        PTCLDY    24  21  88 SW3       30.37F
ARTESIA        FOG       25  25 100 S7        30.38F VSB 3/4 WCI  17
CARLSBAD       CLEAR     22  20  92 E5        30.37F WCI  16
HOBBS            N/A     23  23 100 SW5       30.38F WCI  17


$$



USA.gov is the U.S. government's official web portal to all federal, state and local government web resources and services.